This is the latest recevied weather packets stored in our database for station/object NK7E. If no packets are shown the sender has not sent any weather packets the latest 10 day(s).
| Time | Temp. | Humidity | Pressure | Rain* | Wind** | Luminosity | Snow |
|---|---|---|---|---|---|---|---|
| 1778151316 | 15° C | 42% | 1014.6 hPa | 0 mm | - | 0 W/m² | - |
| 1778150716 | 15° C | 40% | 1014.5 hPa | 0 mm | - | 0 W/m² | - |
| 1778150116 | 15.56° C | 42% | 1014.5 hPa | 0 mm | - | 0 W/m² | - |
| 1778149516 | 16.11° C | 39% | 1014.5 hPa | 0 mm | - | 0 W/m² | - |
| 1778148916 | 16.11° C | 40% | 1014.4 hPa | 0 mm | - | 0 W/m² | - |
| 1778148316 | 16.11° C | 38% | 1014.5 hPa | 0 mm | - | 0 W/m² | - |
| 1778147721 | 16.11° C | 39% | 1014.6 hPa | 0 mm | - | 0 W/m² | - |
| 1778147116 | 16.11° C | 39% | 1014.6 hPa | 0 mm | - | 0 W/m² | - |
| 1778146516 | 16.11° C | 39% | 1014.7 hPa | 0 mm | - | 0 W/m² | - |
| 1778145916 | 16.11° C | 38% | 1014.8 hPa | 0 mm | - | 0 W/m² | - |
| 1778145316 | 16.11° C | 40% | 1014.9 hPa | 0 mm | - | 0 W/m² | - |
| 1778144716 | 16.11° C | 40% | 1015 hPa | 0 mm | - | 0 W/m² | - |
| 1778144116 | 16.67° C | 40% | 1015 hPa | 0 mm | - | 0 W/m² | - |
| 1778143516 | 17.22° C | 38% | 1014.9 hPa | 0 mm | - | 0 W/m² | - |
| 1778142916 | 17.22° C | 37% | 1014.9 hPa | 0 mm | - | 0 W/m² | - |
| 1778142316 | 17.22° C | 36% | 1015 hPa | 0 mm | - | 0 W/m² | - |
| 1778141716 | 17.22° C | 36% | 1015.1 hPa | 0 mm | - | 0 W/m² | - |
| 1778141161 | 17.22° C | 37% | - | 0 mm | - | 0 W/m² | - |
| 1778140816 | 17.22° C | 38% | 1015 hPa | 0 mm | - | 0 W/m² | - |
| 1778140216 | 17.78° C | 36% | 1014.9 hPa | 0 mm | - | 0 W/m² | - |
| 1778139616 | 17.78° C | 35% | 1014.9 hPa | 0 mm | - | 0 W/m² | - |
| 1778139016 | 17.78° C | 34% | 1015 hPa | 0 mm | - | 0 W/m² | - |
| 1778138416 | 17.78° C | 35% | 1015.1 hPa | 0 mm | - | 0 W/m² | - |
| 1778137816 | 17.22° C | 36% | 1015 hPa | 0 mm | - | 0 W/m² | - |
| 1778137216 | 17.22° C | 37% | 1015 hPa | 0 mm | - | 0 W/m² | - |
* Rain latest hour (hover to see other rain measurements)
** Current wind speed in m/s (hover to see current wind gust speed)